Погода в Коневе

Россия / Костромская область     58°05′00″N   45°55′24″E
темп.,
°C
ветер,
м/с
пор.,
м/с
влажн.,
%
обл.,
%
осадки,
мм/ч
давл.,
гПа
погр.,
м
12 мая, ср
ср1200:00+10всв22865 0.0 103018
03:00+9ссв228924 0.0 102936
06:00+12в13702 0.0 1030108
09:00+18всв23535 0.0 1029450
12:00+23в23441 0.0 1028973
15:00+24вюв34430 0.0 10271645
18:00+22в246338 0.0 1026106
21:00+18вюв247644 0.0 102689
13 мая, чт
чт1300:00+14вюв228360 0.0 102617
03:00+13вюв228072 0.0 102621
06:00+16вюв24725 0.0 1026127
09:00+20юв365895 0.0 1025445
12:00+24юв474260 0.0 10241465
15:00+24ююв573578 0.0 10221867
18:00+20ююв385694 0.0 1021348
21:00+17юв2107399 0.0 1021351
14 мая, пт
пт1400:00+16юв313750 0.0 1019475
03:00+13ююв31191100 1.0 1019349
06:00+15ююз379040 0.0 1019301
09:00+20ююз35701 0.0 1020777
12:00+23ююз4648100 0.0 10191854
15:00+23юз4645100 0.0 10192093
18:00+21юз266068 0.0 1018299
21:00+15з11855 0.0 101811
15 мая, сб
сб1500:00+14в118926 0.0 101711
03:00+13вюв229395 0.0 101813
06:00+16вюв2383100 0.0 1017112
09:00+21ююв3668100 0.0 1016539
12:00+26ю3652100 0.0 10151288
15:00+27ю494440 0.0 10141846
18:00+24ю5105172 0.0 10131003
21:00+19ю4156161 0.0 1013637
16 мая, вс
вс1600:00+17ю4137367 0.0 1013372
03:00+15ю31085100 0.0 1014222
06:00+17ююв3978100 0.0 1013256
09:00+22ююз595898 0.0 1013948
12:00+24ююз71347100 0.0 10131781
15:00+23ююз59573 0.5 10131603
18:00+22зюз48540 0.1 10131346
21:00+16зюз310774 0.1 1015219